Wind_Speed
9 9 9 9 9 9 9 9 8 8 9 9 9 9 10 10 10 10 11 12 12 12 12 11 12 12 12 12 12 11 11 11 12 12 13 13 13 13 13 14 14 15 15
10 10 9 9 9 9 9 9 9 9 9 10 10 10 10 10 11 11 12 13 13 13 12 12 12 12 12 12 12 12 12 12 12 13 13 13 13 13 14 15 15 15 15
10 10 10 10 10 10 11 11 10 10 10 11 11 11 11 11 12 12 13 13 12 12 13 12 12 12 13 13 12 12 13 13 13 13 13 13 13 14 14 15 15 15 16
11 11 10 11 11 11 12 12 12 12 12 12 12 12 12 13 13 13 13 13 12 12 13 13 13 13 14 14 13 13 13 13 14 14 15 15 15 15 15 16 16 16 16
11 11 11 12 12 12 12 12 12 12 12 12 13 13 13 13 13 13 12 12 13 13 14 14 14 14 14 15 14 14 14 14 15 15 16 16 17 17 17 17 17 16 16
12 12 12 12 12 12 12 12 12 12 12 13 13 13 14 14 14 13 13 13 13 14 15 15 16 15 15 15 15 15 16 15 16 16 17 17 17 18 17 17 17 16 16
13 13 12 12 12 12 12 12 12 13 13 13 14 14 14 14 15 15 14 14 15 15 15 16 16 16 16 16 16 16 17 17 16 17 17 18 18 18 18 18 16 16 16
13 13 13 13 13 13 13 13 13 14 14 15 15 15 15 15 15 16 16 16 16 16 16 17 17 17 17 17 17 17 17 17 17 17 17 18 18 18 18 17 17 16 16
14 14 15 14 14 14 13 14 14 15 16 16 17 17 16 16 16 17 17 18 18 18 18 18 18 18 18 18 19 19 19 18 18 18 18 18 18 19 18 18 18 17 16
16 16 16 15 15 15 15 16 16 16 17 18 18 18 17 18 18 18 18 19 20 20 20 20 19 19 19 19 20 20 19 19 19 18 18 18 19 19 19 19 18 18 17
17 17 17 17 16 16 17 17 17 18 18 18 18 19 19 19 19 19 20 20 20 21 21 21 21 20 19 19 19 19 19 19 18 18 18 19 19 19 19 19 19 18 18
17 17 17 18 18 18 18 18 18 18 19 19 19 19 19 19 20 20 21 21 21 21 21 21 21 20 19 18 19 19 19 19 19 19 19 19 19 19 19 20 19 19 19
18 17 18 18 18 18 19 19 19 19 19 19 19 19 20 20 20 20 21 22 22 21 21 21 21 21 20 18 18 18 18 18 19 19 19 19 19 19 20 20 20 20 20
18 18 19 19 18 19 19 20 19 19 19 19 19 19 20 20 20 21 21 21 22 22 22 22 22 21 21 20 20 20 19 20 20 20 21 21 20 20 21 20 21 21 21
19 19 19 19 19 19 19 19 19 19 19 19 19 19 20 20 20 21 21 22 22 22 22 22 22 22 22 22 22 22 22 22 22 21 21 21 21 21 21 21 21 21 21
20 20 20 20 20 20 19 19 19 19 19 19 19 20 20 21 21 22 22 22 22 23 23 22 22 23 23 23 23 23 23 24 23 23 22 22 21 21 21 21 21 21 21
21 20 20 20 20 20 20 20 20 20 19 19 20 20 21 21 22 22 23 23 23 23 23 23 23 23 24 24 24 24 24 25 24 23 23 22 21 21 21 21 22 22 22
22 21 21 21 22 22 22 22 21 21 21 20 20 21 21 21 22 22 23 23 23 23 23 24 24 24 25 25 25 24 24 25 24 24 23 22 21 21 22 22 23 23 23
23 22 22 22 23 23 24 23 22 22 22 22 22 21 21 22 23 23 23 24 24 23 24 24 25 25 25 25 25 24 25 25 25 25 24 23 23 23 23 23 23 23 24
23 24 24 24 24 25 25 24 24 24 23 23 23 23 23 24 24 25 25 25 25 25 25 26 26 25 24 25 25 26 26 26 26 25 24 24 24 24 24 24 24 24 24
25 25 25 26 26 26 26 26 26 25 24 24 24 24 25 25 26 26 26 25 26 26 26 26 26 25 25 25 26 27 27 27 26 25 25 25 26 26 25 25 25 25 25
26 27 27 26 26 26 27 28 27 27 27 27 26 26 26 26 26 26 26 26 26 26 26 26 26 26 26 26 26 27 27 27 27 27 26 26 27 27 27 27 28 28 27
27 28 28 27 27 28 27 27 28 28 28 28 28 28 28 27 27 27 27 26 27 27 26 27 26 26 27 27 27 27 28 28 28 27 27 27 28 28 27 28 29 29 29
27 27 28 28 28 29 29 29 29 29 29 30 30 29 29 28 28 28 27 27 28 28 28 28 28 28 28 28 28 28 29 28 28 28 27 28 28 28 28 29 30 30 29
27 28 28 28 28 29 29 29 30 30 30 30 30 30 30 29 29 28 28 28 29 29 29 29 29 29 28 28 28 29 29 29 28 28 28 29 30 29 28 29 30 31 31
28 29 29 28 28 28 29 29 30 30 30 30 30 30 29 29 29 29 29 29 30 30 30 30 29 29 29 29 29 29 30 30 30 29 29 29 30 31 29 30 30 31 31
Wind_Direction
259 266 268 269 269 268 268 270 272 275 277 281 284 285 283 283 283 285 285 286 288 288 280 277 277 275 274 274 275 276 277 277 277 278 279 280 282 281 284 285 284 284 285
259 266 271 272 270 268 269 271 272 276 279 280 283 289 289 286 286 287 288 288 287 287 283 278 274 275 275 275 274 275 274 276 276 278 280 281 282 283 284 284 285 286 286
260 264 268 271 271 270 269 269 271 274 276 279 282 287 289 288 287 285 287 287 284 282 282 280 276 274 273 273 274 274 273 274 277 278 280 281 282 285 287 289 287 287 286
259 264 268 273 272 269 269 268 271 274 277 280 283 285 287 289 288 285 284 284 283 283 284 281 279 276 274 272 270 271 272 274 276 278 280 282 283 284 285 287 288 286 285
259 264 269 272 271 269 270 270 273 274 276 279 283 286 288 290 289 288 287 285 284 285 287 285 283 279 276 273 269 268 270 274 276 278 279 281 282 285 286 286 285 285 284
258 262 268 272 273 270 270 271 275 275 278 281 283 285 288 288 287 286 285 286 288 286 288 287 282 279 274 273 271 270 270 273 276 277 278 280 281 284 285 284 282 281 281
260 264 270 273 275 272 273 274 275 277 280 282 285 286 286 286 285 285 284 286 287 287 287 287 285 283 276 273 270 271 272 273 275 277 278 280 283 284 283 281 279 279 280
263 265 268 273 274 273 273 275 276 278 280 282 285 285 284 285 284 284 284 284 287 288 287 287 286 284 281 276 271 269 272 273 274 278 281 282 283 283 281 279 278 278 280
266 265 268 271 271 273 276 277 278 280 282 284 284 285 283 284 285 286 286 286 287 287 287 287 286 285 282 277 272 268 270 271 273 276 280 282 282 281 279 278 278 277 278
268 267 269 271 270 272 277 280 280 281 284 285 285 284 284 284 284 284 285 285 285 285 286 286 287 285 281 276 272 269 269 272 274 277 279 282 281 277 275 276 277 276 276
269 269 269 270 269 272 276 281 282 281 283 284 283 282 282 282 283 284 285 285 284 284 283 284 285 287 281 277 273 270 270 271 272 274 278 281 280 276 274 275 276 275 273
268 268 268 268 269 271 275 278 282 283 282 282 281 280 280 281 283 283 285 284 285 285 285 284 285 285 283 280 276 271 270 271 271 274 278 280 280 277 276 276 275 275 274
266 267 268 269 270 272 274 277 280 284 284 282 281 280 280 282 282 284 285 285 285 286 285 284 283 281 280 280 276 272 271 272 272 274 277 280 279 278 277 276 276 276 275
264 265 268 269 270 272 275 277 280 282 286 287 284 283 282 283 283 284 285 286 286 287 286 285 283 282 279 277 276 273 273 273 273 275 276 280 278 277 276 276 277 277 275
264 266 267 269 271 272 274 277 281 283 285 286 285 285 284 283 283 285 285 285 285 286 285 285 283 281 279 277 275 274 274 274 274 275 276 277 277 275 274 274 275 277 276
266 268 270 270 271 273 275 279 282 282 284 285 286 286 285 284 284 285 286 286 285 285 284 283 282 279 278 277 277 275 275 276 275 275 276 277 276 275 274 273 273 274 274
267 268 269 269 271 274 276 279 281 281 282 286 287 286 286 287 286 286 288 288 287 286 284 282 281 279 277 277 276 275 276 276 277 275 275 276 276 273 272 272 272 273 273
265 266 267 270 271 273 275 277 278 280 284 285 285 286 286 286 286 287 289 289 289 287 286 285 283 281 279 278 276 275 276 275 275 274 274 274 274 273 272 272 272 271 271
264 265 267 269 271 273 275 276 280 281 284 285 285 284 284 285 287 288 288 289 290 289 288 287 285 282 281 278 276 276 275 275 275 274 273 273 272 272 272 271 271 270 270
267 266 267 269 271 272 273 276 279 282 284 285 285 284 285 286 287 286 286 287 288 288 288 287 286 284 281 279 277 275 274 275 274 273 272 270 270 271 270 270 270 270 270
268 268 268 270 270 271 272 275 278 281 283 283 284 285 286 288 287 286 286 286 287 287 287 287 286 285 282 280 278 277 275 273 271 271 270 268 269 270 269 270 270 270 269
269 269 270 271 270 270 273 275 277 279 281 282 283 284 285 286 286 286 285 285 286 287 288 287 285 284 283 282 280 278 275 272 271 271 270 268 268 269 269 269 269 269 269
272 272 272 273 272 271 272 274 275 277 280 281 282 284 285 285 286 285 285 285 285 286 286 286 285 284 282 281 279 279 277 276 274 272 270 268 268 270 271 269 269 269 269
274 275 275 274 274 274 273 275 276 277 279 282 283 284 284 284 284 284 283 283 284 284 284 284 283 283 283 282 280 279 279 278 277 273 270 267 267 270 271 269 268 269 270
275 277 277 277 276 276 277 278 278 279 281 283 284 285 284 283 282 282 283 283 284 285 284 284 283 283 282 282 280 279 278 278 277 275 271 268 267 270 272 271 269 269 270
278 279 280 279 279 279 279 280 280 281 282 283 284 284 285 284 283 282 281 282 283 284 284 284 284 283 282 281 281 279 279 278 276 276 273 269 268 269 272 271 270 270 271
Height
5839 5838 5839 5838 5838 5838 5838 5838 5838 5838 5838 5837 5837 5836 5835 5835 5834 5834 5833 5832 5832 5832 5831 5831 5831 5830 5830 5831 5831 5831 5831 5831 5830 5830 5830 5829 5829 5828 5827 5827 5826 5825 5825
5836 5836 5836 5836 5836 5836 5836 5836 5835 5835 5835 5834 5834 5833 5832 5832 5831 5831 5830 5829 5829 5828 5828 5828 5827 5827 5827 5827 5827 5827 5827 5827 5827 5827 5827 5826 5826 5825 5824 5823 5822 5821 5821
5834 5834 5833 5833 5833 5833 5833 5833 5833 5832 5832 5831 5831 5830 5830 5829 5828 5828 5827 5826 5825 5825 5824 5824 5824 5823 5823 5823 5824 5824 5824 5824 5824 5823 5823 5823 5822 5821 5820 5819 5818 5817 5816
5831 5831 5831 5831 5830 5830 5830 5829 5829 5829 5829 5828 5828 5827 5826 5826 5825 5824 5823 5822 5822 5821 5821 5820 5820 5819 5819 5819 5819 5820 5820 5820 5820 5819 5819 5819 5818 5817 5817 5815 5814 5813 5812
5828 5828 5828 5827 5827 5826 5826 5826 5825 5825 5825 5825 5824 5824 5823 5822 5821 5820 5820 5819 5819 5818 5817 5817 5816 5816 5815 5815 5815 5815 5815 5816 5815 5815 5815 5814 5813 5813 5812 5811 5810 5808 5807
5825 5825 5825 5824 5824 5823 5823 5822 5822 5822 5821 5821 5820 5820 5819 5818 5817 5817 5816 5816 5815 5814 5813 5813 5812 5811 5811 5811 5811 5811 5811 5811 5811 5811 5810 5810 5809 5808 5807 5806 5805 5804 5803
5822 5822 5821 5821 5820 5820 5819 5819 5818 5818 5818 5817 5816 5815 5815 5814 5814 5813 5812 5812 5811 5810 5810 5809 5808 5807 5806 5806 5806 5806 5806 5806 5806 5806 5805 5805 5804 5803 5802 5801 5800 5800 5799
5818 5818 5817 5817 5817 5816 5816 5815 5815 5814 5814 5813 5812 5811 5811 5810 5809 5809 5808 5808 5807 5806 5805 5804 5803 5802 5802 5801 5801 5801 5801 5801 5801 5800 5800 5799 5798 5797 5796 5796 5795 5795 5794
5814 5814 5814 5813 5813 5812 5812 5811 5811 5810 5809 5809 5808 5807 5806 5805 5805 5804 5804 5803 5802 5801 5800 5799 5798 5798 5797 5796 5796 5796 5795 5795 5795 5794 5794 5793 5792 5792 5791 5790 5790 5790 5789
5810 5810 5809 5809 5809 5808 5807 5807 5806 5805 5804 5803 5802 5802 5801 5800 5800 5799 5799 5798 5797 5796 5795 5794 5793 5792 5791 5790 5790 5790 5790 5790 5789 5789 5788 5787 5787 5786 5785 5785 5785 5784 5784
5805 5805 5805 5804 5804 5803 5803 5802 5801 5800 5799 5798 5797 5796 5795 5795 5794 5794 5793 5792 5791 5790 5789 5788 5787 5786 5785 5784 5784 5784 5784 5784 5784 5783 5783 5782 5781 5780 5780 5779 5779 5778 5778
5800 5800 5799 5799 5799 5799 5798 5797 5796 5795 5794 5792 5791 5791 5790 5789 5788 5788 5787 5786 5785 5784 5783 5782 5781 5780 5779 5778 5778 5778 5778 5778 5778 5777 5777 5776 5775 5774 5774 5773 5773 5773 5772
5795 5795 5794 5794 5794 5793 5792 5791 5790 5789 5788 5787 5786 5785 5784 5783 5782 5781 5780 5779 5778 5777 5776 5776 5774 5774 5773 5773 5772 5772 5772 5772 5772 5771 5771 5770 5769 5768 5768 5767 5767 5767 5766
5790 5790 5789 5789 5789 5788 5787 5786 5785 5784 5782 5781 5780 5779 5778 5777 5776 5775 5774 5773 5772 5771 5770 5769 5768 5767 5767 5766 5766 5766 5766 5766 5766 5765 5764 5764 5762 5762 5761 5761 5760 5760 5760
5785 5784 5784 5784 5783 5782 5781 5780 5779 5778 5777 5776 5775 5774 5772 5771 5770 5769 5768 5767 5765 5764 5763 5762 5761 5760 5760 5760 5760 5760 5759 5759 5759 5758 5757 5757 5756 5755 5755 5754 5754 5753 5753
5779 5779 5778 5778 5777 5776 5775 5774 5773 5772 5771 5770 5769 5768 5767 5765 5764 5763 5762 5760 5759 5757 5756 5755 5754 5754 5753 5753 5753 5752 5752 5752 5751 5751 5750 5750 5749 5748 5748 5747 5747 5747 5747
5773 5772 5772 5772 5771 5771 5770 5768 5767 5766 5765 5763 5762 5761 5760 5759 5758 5756 5755 5753 5752 5750 5749 5748 5747 5746 5746 5745 5745 5744 5744 5744 5744 5743 5743 5742 5742 5741 5741 5741 5740 5740 5740
5766 5766 5766 5766 5765 5764 5764 5763 5761 5760 5759 5757 5756 5755 5754 5753 5751 5750 5748 5747 5745 5743 5742 5740 5739 5739 5738 5737 5737 5737 5737 5736 5736 5735 5735 5735 5734 5734 5734 5734 5734 5734 5733
5759 5759 5759 5759 5758 5758 5757 5756 5755 5754 5753 5751 5750 5748 5747 5746 5745 5743 5742 5740 5738 5737 5735 5734 5732 5731 5730 5730 5729 5729 5729 5728 5728 5728 5727 5727 5727 5727 5726 5726 5726 5726 5726
5752 5753 5752 5752 5751 5751 5750 5749 5748 5747 5746 5745 5743 5742 5741 5739 5738 5736 5734 5733 5731 5730 5728 5727 5725 5724 5723 5722 5721 5721 5720 5720 5720 5720 5719 5719 5719 5718 5718 5718 5718 5719 5719
5745 5745 5745 5745 5744 5743 5742 5742 5741 5740 5739 5737 5736 5735 5733 5732 5730 5729 5727 5725 5724 5722 5721 5719 5718 5716 5715 5714 5713 5712 5711 5711 5711 5711 5711 5711 5710 5710 5710 5710 5711 5711 5711
5738 5738 5738 5737 5736 5736 5735 5734 5733 5732 5731 5730 5729 5727 5726 5724 5722 5721 5719 5718 5716 5715 5713 5711 5710 5709 5707 5706 5704 5703 5702 5702 5702 5702 5702 5702 5701 5701 5701 5702 5702 5702 5703
5731 5730 5730 5729 5728 5727 5727 5726 5725 5724 5723 5722 5721 5719 5718 5716 5714 5713 5711 5710 5708 5707 5705 5704 5702 5701 5699 5698 5696 5695 5694 5693 5693 5693 5693 5693 5693 5692 5692 5693 5693 5693 5694
5723 5722 5722 5721 5720 5719 5718 5717 5716 5716 5715 5714 5712 5711 5709 5707 5706 5704 5703 5701 5700 5698 5697 5696 5694 5693 5691 5689 5688 5687 5685 5685 5684 5683 5683 5683 5683 5683 5683 5683 5684 5684 5685
5716 5714 5713 5713 5712 5710 5709 5708 5707 5707 5706 5705 5703 5701 5700 5699 5697 5696 5694 5693 5692 5690 5688 5687 5685 5684 5683 5681 5679 5678 5677 5676 5675 5674 5674 5674 5673 5674 5674 5674 5674 5675 5675
5707 5706 5705 5704 5703 5702 5701 5700 5698 5697 5696 5695 5694 5692 5691 5690 5688 5687 5686 5684 5682 5681 5679 5678 5676 5675 5673 5671 5670 5668 5667 5666 5665 5665 5664 5664 5664 5664 5664 5664 5664 5665 5665